Location: Castifao
(42.5040°N, 9.1124°E)
Time: 06:41:49
(UTC+00:00)

Cosmos 2237 Rocket - Pass Details

Date: 23 January 2020
Orbit: 837 x 848 km, 71.0° (Epoch: 17 February)

Event Time Altitude Azimuth Distance (km) Brightness Sun altitude
Rises 17:13:32 0° 336° (NNW) 3,396 5.4 -9.1°
Reaches altitude 10° 17:16:00 10° 337° (NNW) 2,458 4.7 -9.6°
Maximum altitude 17:21:39 83° 65° (ENE) 849 2.1 -10.6°
Drops below altitude 10° 17:27:16 10° 154° (SSE) 2,443 4.5 -11.6°
Sets 17:29:41 0° 155° (SSE) 3,374 5.2 -12.0°
